Baltimore Martin, MD

1:50 AM EDT on September 22, 2017 (GMT -0400)
Martin State

Weather History for KMTN - December, 2012

Change the Weather History Date:

Wednesday, December 5, 2012

  Actual Average Record
Temperature  
Mean Temperature 47 °F -  
Max Temperature 59 °F 46 °F 66 °F (1998)
Min Temperature 35 °F 33 °F 26 °F (2000)
Degree Days  
Heating Degree Days 18    
Moisture  
Dew Point 40 °F    
Average Humidity 69    
Maximum Humidity 100    
Minimum Humidity 36    
Precipitation  
Precipitation 0.00 in - - ()
Sea Level Pressure  
Sea Level Pressure 30.09 in    
Wind  
Wind Speed 5 mph (WNW)    
Max Wind Speed 17 mph    
Max Gust Speed 26 mph    
Visibility 10 miles    
Events      
Averages and records for this station are not official NWS values.
T = Trace of Precipitation, MM = Missing Value Source: NWS Daily Summary

Daily Weather History Graph

Daily Weather History Graph

Search for Another Location

Airport or City:

Trip Planner

Search our weather history database for the weather conditions in past years. The results will help you decide how hot, cold, wet, or windy it might be!

Date:

Astronomy

Dec. 05, 2012 Rise Set
Actual Time 7:10 AM EST 4:42 PM EST
Civil Twilight 6:40 AM EST 5:12 PM EST
Nautical Twilight 6:07 AM EST 5:45 PM EST
Astronomical Twilight 5:34 AM EST 6:17 PM EST
Moon 11:27 PM EST (12/5) 11:34 AM EST (12/5)
Length of Visible Light 10h 31m
Length of Day
9h 31m
Waning Gibbous, 60% of the Moon is Illuminated
Dec 5
Waning Gibbous
Dec 6
Last Quarter
Dec 13
New
Dec 20
First Quarter
Dec 28
Full

Hourly Weather History & Observations

Time (EST) Temp. Windchill Dew Point Humidity Pressure Visibility Wind Dir Wind Speed Gust Speed Precip Events Conditions
12:03 AM 51.8 °F - 50.0 °F 94% 30.01 in 10.0 mi ESE 3.5 mph - N/A   Clear
12:24 AM 51.8 °F - 50.0 °F 94% 30.00 in 10.0 mi Calm Calm - N/A   Clear
12:45 AM 51.8 °F - 50.0 °F 94% 30.00 in 10.0 mi Calm Calm - N/A   Clear
1:06 AM 51.8 °F - 50.0 °F 94% 29.99 in 10.0 mi Calm Calm - N/A   Clear
1:27 AM 50.0 °F - 48.2 °F 94% 29.99 in 10.0 mi Calm Calm - N/A   Clear
1:48 AM 50.0 °F - 48.2 °F 94% 29.99 in 10.0 mi Calm Calm - N/A   Clear
2:09 AM 50.0 °F - 50.0 °F 100% 29.99 in 10.0 mi Calm Calm - N/A   Scattered Clouds
2:30 AM 50.0 °F - 48.2 °F 94% 29.99 in 10.0 mi Calm Calm - N/A   Clear
2:51 AM 48.2 °F - 46.4 °F 93% 29.99 in 10.0 mi Calm Calm - N/A   Clear
3:15 AM 50.0 °F - 48.2 °F 94% 29.99 in 10.0 mi Calm Calm - N/A   Clear
3:36 AM 51.8 °F - 50.0 °F 94% 30.00 in 10.0 mi WSW 5.8 mph - N/A   Clear
3:57 AM 59.0 °F - 50.0 °F 72% 30.00 in 10.0 mi SW 4.6 mph - N/A   Clear
4:18 AM 59.0 °F - 50.0 °F 72% 30.01 in 10.0 mi WSW 3.5 mph - N/A   Clear
4:39 AM 57.2 °F - 50.0 °F 77% 30.02 in 10.0 mi WNW 6.9 mph - N/A   Clear
5:00 AM 59.0 °F - 50.0 °F 72% 30.03 in 10.0 mi NW 9.2 mph 17.3 mph N/A   Clear
5:21 AM 59.0 °F - 50.0 °F 72% 30.05 in 10.0 mi WNW 8.1 mph - N/A   Scattered Clouds
5:50 AM 57.2 °F - 50.0 °F 77% 30.06 in 10.0 mi WNW 4.6 mph - N/A   Mostly Cloudy
6:45 AM 55.4 °F - 46.4 °F 72% 30.09 in 10.0 mi WNW 12.7 mph - N/A   Overcast
7:45 AM 55.4 °F - 39.2 °F 54% 30.11 in 10.0 mi WNW 12.7 mph - N/A   Overcast
9:45 AM 53.6 °F - 35.6 °F 51% 30.14 in 10.0 mi WNW 12.7 mph - N/A   Mostly Cloudy
10:45 AM 53.6 °F - 33.8 °F 47% 30.14 in 10.0 mi WNW 16.1 mph - N/A   Mostly Cloudy
11:45 AM 53.6 °F - 33.8 °F 47% 30.13 in 10.0 mi WNW 16.1 mph - N/A   Scattered Clouds
12:50 PM 57.2 °F - 32.0 °F 38% 30.12 in 10.0 mi West 10.4 mph 19.6 mph N/A   Scattered Clouds
1:45 PM 59.0 °F - 32.0 °F 36% 30.10 in 10.0 mi WNW 17.3 mph - N/A   Scattered Clouds
2:45 PM 57.2 °F - 30.2 °F 36% 30.11 in 10.0 mi West 17.3 mph 25.3 mph N/A   Partly Cloudy
3:45 PM 55.4 °F - 30.2 °F 38% 30.14 in 10.0 mi WNW 15.0 mph 23.0 mph N/A   Partly Cloudy
4:50 PM 51.8 °F - 30.2 °F 44% 30.17 in 10.0 mi NW 13.8 mph 20.7 mph N/A   Partly Cloudy
5:50 PM 48.2 °F - 28.4 °F 46% 30.21 in 10.0 mi NW 16.1 mph 26.5 mph N/A   Partly Cloudy
8:50 PM 44.6 °F 38.8 °F 24.8 °F 46% 30.29 in 10.0 mi NW 11.5 mph 24.2 mph N/A   Partly Cloudy
10:21 PM 41.0 °F 36.4 °F 23.0 °F 49% 30.31 in 10.0 mi WNW 6.9 mph - N/A   Clear
11:03 PM 35.6 °F 29.9 °F 23.0 °F 60% 30.32 in 10.0 mi West 6.9 mph - N/A   Clear
11:24 PM 35.6 °F 29.9 °F 23.0 °F 60% 30.32 in 10.0 mi West 6.9 mph - N/A   Clear
11:45 PM 35.6 °F 29.2 °F 23.0 °F 60% 30.32 in 10.0 mi WNW 8.1 mph - N/A   Clear